GFSMW_prec_precacc_249.txt.gz
Total_Precipitation_Accumulation
1.01 1.24 0.89 0.81 0.91 0.85 0.88 0.71 0.61 0.72 0.95 1.11 0.99 0.99 1.26 1.72 1.88 1.43 1.19 1.13 1.06 1.07 1.00 0.83 0.69 0.52 0.34 0.26 0.26 0.34 0.53 0.74 0.71 0.63 0.48 0.32 0.22 0.24 0.29 0.31 0.32 0.31 0.28
0.89 1.29 1.70 0.90 0.88 1.50 1.77 1.37 1.11 1.01 0.94 1.07 1.00 0.90 1.00 1.20 1.63 1.90 1.50 1.43 1.38 1.29 1.05 0.89 0.88 0.75 0.68 0.60 0.60 0.53 0.56 0.60 0.77 0.76 0.61 0.51 0.43 0.36 0.20 0.16 0.19 0.23 0.27
0.60 1.05 1.84 1.39 1.25 1.72 1.87 1.62 1.51 1.54 1.46 1.48 1.88 1.58 1.60 1.48 1.70 2.11 1.91 1.78 1.54 1.46 1.65 1.97 1.65 1.14 1.16 1.26 1.30 1.36 1.34 1.14 0.92 0.81 0.87 0.61 0.42 0.32 0.36 0.25 0.21 0.21 0.21
0.38 0.60 0.95 1.32 1.45 1.02 1.03 1.53 2.55 2.98 2.12 1.91 2.77 3.41 3.11 2.94 2.71 2.93 2.66 2.11 1.84 1.72 1.88 2.22 2.82 3.28 2.84 2.01 1.71 1.57 1.43 1.53 1.39 1.35 1.09 0.91 0.65 0.49 0.35 0.25 0.29 0.35 0.38
0.34 0.35 0.56 0.83 0.79 0.73 0.77 0.94 1.48 2.35 2.43 2.47 2.68 3.18 3.05 2.43 2.15 2.20 2.78 2.81 2.55 2.09 1.89 1.93 2.04 2.04 2.23 2.70 2.47 2.01 1.90 1.79 1.55 1.30 1.07 0.97 0.92 0.93 0.82 0.46 0.27 0.29 0.35
0.16 0.32 0.31 0.46 0.55 0.66 0.78 0.69 1.00 1.46 2.17 2.43 2.43 2.64 2.88 3.15 2.70 2.19 2.40 2.27 1.89 1.85 1.74 1.58 1.49 1.50 1.53 1.63 1.99 2.01 1.74 1.66 1.72 1.68 1.57 1.30 1.21 1.00 1.13 1.04 0.67 0.58 0.44
0.30 0.37 0.59 0.56 0.66 0.78 0.60 0.61 0.89 1.03 1.50 1.69 2.08 2.20 1.78 2.03 2.12 1.97 1.93 2.04 2.00 1.76 1.68 1.56 1.60 1.51 1.52 1.56 1.64 1.77 1.70 1.53 1.41 1.37 1.42 1.61 1.63 1.55 1.56 1.55 1.16 0.83 0.54
0.55 0.51 0.81 1.02 1.05 0.88 0.85 0.56 0.82 0.91 0.90 0.91 0.97 1.35 1.58 1.94 1.87 1.68 1.58 1.55 1.45 1.56 1.90 1.82 1.79 1.87 1.85 1.83 1.85 1.87 1.88 1.79 1.72 1.74 1.68 1.62 1.64 1.83 1.97 2.04 2.09 1.93 1.21
0.91 0.79 0.86 1.20 1.12 0.89 0.99 0.92 0.88 0.98 0.81 0.84 0.54 0.48 0.57 0.70 0.85 0.90 0.91 1.02 1.29 1.22 1.34 1.47 1.39 1.41 1.44 1.41 1.49 1.50 1.45 1.59 1.67 1.58 1.51 1.51 1.37 1.42 1.59 1.90 2.33 2.96 2.66
1.11 0.97 0.90 0.92 0.86 0.72 0.88 0.94 0.81 0.61 0.57 0.66 0.59 0.25 0.28 0.32 0.39 0.31 0.28 0.30 0.45 0.61 0.72 0.85 0.91 0.98 1.06 1.21 1.31 1.32 1.39 1.52 1.58 1.64 1.72 1.71 1.67 1.66 1.50 1.49 1.72 2.06 2.52
0.84 0.76 0.69 0.63 0.58 0.42 0.60 0.85 0.73 0.61 0.51 0.56 0.72 0.45 0.34 0.32 0.34 0.28 0.13 0.14 0.13 0.16 0.18 0.18 0.27 0.35 0.40 0.54 0.76 0.92 1.10 1.30 1.51 1.84 2.12 2.26 2.34 2.49 2.47 2.58 2.74 2.90 3.12
0.56 0.54 0.56 0.53 0.34 0.47 0.71 1.23 1.11 0.76 0.50 0.51 0.58 0.73 0.57 0.47 0.41 0.39 0.21 0.17 0.19 0.20 0.19 0.18 0.19 0.24 0.27 0.27 0.27 0.33 0.40 0.48 0.59 0.81 1.06 1.18 1.32 1.57 1.67 1.88 2.08 2.43 2.90
0.23 0.31 0.45 0.76 0.26 0.49 0.80 1.23 1.16 0.77 0.53 0.58 0.54 0.71 0.94 0.77 0.66 0.47 0.39 0.27 0.30 0.37 0.56 0.38 0.31 0.26 0.23 0.19 0.22 0.26 0.37 0.47 0.58 0.67 0.74 0.86 0.97 1.02 1.04 1.09 1.17 1.25 1.40
0.24 0.27 0.17 0.17 0.29 0.79 0.95 0.96 1.27 1.09 0.86 0.75 0.70 0.65 0.97 0.95 0.85 0.67 0.60 0.47 0.42 0.40 0.56 0.93 0.51 0.42 0.39 0.34 0.26 0.27 0.27 0.34 0.50 0.52 0.57 0.61 0.76 0.95 1.09 1.41 1.63 1.53 1.45
0.15 0.14 0.14 0.22 0.31 1.05 0.98 1.23 1.26 1.55 1.35 1.03 0.97 0.89 0.67 0.88 0.72 0.50 0.66 0.56 0.41 0.48 0.43 0.51 0.60 0.53 0.46 0.62 0.50 0.38 0.41 0.36 0.58 0.89 0.88 1.03 1.09 1.21 1.16 1.02 0.94 1.07 1.10
0.13 0.10 0.17 0.24 0.33 0.75 0.96 0.98 1.47 1.91 1.70 1.44 1.15 1.03 0.62 0.61 0.64 0.52 0.55 0.52 0.52 0.69 0.50 0.52 0.45 0.42 0.51 0.97 0.96 0.73 0.69 0.72 0.63 0.98 1.10 1.11 1.37 1.05 1.09 1.10 1.06 1.01 1.01
0.14 0.12 0.20 0.59 0.36 0.57 0.90 1.13 1.44 1.56 1.73 1.97 1.58 1.12 0.61 0.54 0.49 0.42 0.47 0.43 0.48 0.64 0.67 0.60 0.68 0.57 0.62 0.93 1.05 0.91 0.56 0.68 0.81 0.62 0.62 0.46 0.46 0.56 0.53 0.67 0.67 0.64 0.57
0.15 0.40 0.59 0.60 0.40 0.76 1.30 1.19 1.51 1.19 1.42 1.99 1.73 1.42 1.05 0.89 0.77 0.64 0.62 0.45 0.48 0.56 0.60 0.61 0.81 0.92 1.10 1.04 1.04 0.91 0.47 0.40 0.51 0.31 0.22 0.16 0.14 0.20 0.24 0.31 0.39 0.42 0.40
0.49 0.49 0.64 0.75 0.59 0.66 0.93 0.97 1.11 1.28 1.61 2.03 2.00 1.69 1.30 1.19 1.22 1.24 1.05 0.85 0.83 0.85 0.93 0.83 0.83 0.90 1.13 0.99 1.08 0.67 0.48 0.32 0.22 0.10 0.04 0.04 0.02 0.06 0.16 0.15 0.20 0.24 0.23
0.51 0.70 0.91 0.92 0.71 0.68 0.87 1.36 1.89 1.72 1.67 1.56 1.60 1.56 1.44 1.18 1.07 0.89 0.95 0.83 0.74 0.77 0.82 0.79 0.74 0.72 0.66 0.63 0.68 0.60 0.34 0.15 0.10 0.03 0.03 0.04 0.03 0.05 0.09 0.10 0.07 0.10 0.03
0.43 0.47 0.66 0.76 0.72 0.82 1.34 1.65 1.77 1.77 1.73 1.72 1.55 1.39 1.19 1.23 0.97 0.85 0.68 0.70 0.59 0.47 0.44 0.41 0.38 0.27 0.19 0.15 0.15 0.10 0.08 0.08 0.08 0.03 0.02 0.02 0.04 0.10 0.13 0.14 0.09 0.13 0.12
0.30 0.20 0.47 0.98 1.20 1.10 1.17 1.10 1.09 1.07 0.91 0.95 0.81 0.85 0.69 0.61 0.59 0.36 0.37 0.33 0.27 0.20 0.13 0.07 0.05 0.03 0.03 0.05 0.07 0.07 0.07 0.06 0.04 0.04 0.03 0.02 0.08 0.13 0.11 0.12 0.11 0.15 0.17
0.22 0.10 0.17 0.22 0.36 0.43 0.41 0.49 0.54 0.53 0.52 0.49 0.43 0.43 0.31 0.16 0.12 0.09 0.06 0.07 0.04 0.02 0.02 0.02 0.02 0.02 0.02 0.03 0.08 0.07 0.07 0.10 0.09 0.04 0.07 0.10 0.11 0.11 0.08 0.08 0.11 0.11 0.09
0.06 0.07 0.09 0.13 0.22 0.26 0.29 0.27 0.16 0.21 0.31 0.43 0.41 0.36 0.18 0.14 0.09 0.04 0.03 0.01 0.01 0.02 0.02 0.03 0.04 0.04 0.06 0.06 0.06 0.09 0.09 0.11 0.10 0.07 0.10 0.14 0.13 0.12 0.10 0.11 0.11 0.09 0.11
0.06 0.09 0.13 0.14 0.13 0.10 0.19 0.24 0.18 0.17 0.20 0.21 0.18 0.14 0.07 0.08 0.04 0.02 0.02 0.01 0.01 0.03 0.02 0.02 0.03 0.05 0.06 0.08 0.18 0.21 0.19 0.21 0.28 0.39 0.25 0.20 0.14 0.10 0.11 0.11 0.12 0.19 0.26
0.05 0.03 0.09 0.17 0.26 0.29 0.31 0.28 0.25 0.21 0.17 0.14 0.11 0.11 0.07 0.05 0.06 0.06 0.06 0.07 0.06 0.06 0.06 0.06 0.05 0.04 0.07 0.11 0.18 0.21 0.24 0.29 0.40 0.46 0.31 0.21 0.15 0.13 0.14 0.18 0.23 0.28 0.36

GFSMW_prec_precacc_255.txt.gz
Total_Precipitation_Accumulation
1.01 1.24 0.89 0.81 0.91 0.85 0.88 0.71 0.61 0.72 0.95 1.11 0.99 0.99 1.26 1.72 1.88 1.43 1.19 1.13 1.06 1.07 1.00 0.83 0.69 0.52 0.34 0.26 0.26 0.34 0.53 0.74 0.71 0.63 0.48 0.32 0.22 0.24 0.29 0.31 0.32 0.31 0.28
0.89 1.29 1.70 0.90 0.88 1.50 1.77 1.37 1.11 1.01 0.94 1.07 1.00 0.90 1.00 1.20 1.63 1.90 1.50 1.43 1.38 1.29 1.05 0.89 0.88 0.75 0.68 0.60 0.60 0.53 0.56 0.60 0.77 0.76 0.61 0.51 0.43 0.36 0.20 0.16 0.19 0.23 0.27
0.60 1.05 1.84 1.39 1.25 1.72 1.87 1.62 1.51 1.54 1.46 1.48 1.88 1.58 1.60 1.48 1.70 2.11 1.91 1.78 1.54 1.46 1.65 1.97 1.65 1.14 1.16 1.26 1.30 1.36 1.34 1.14 0.92 0.81 0.87 0.61 0.42 0.32 0.36 0.25 0.21 0.21 0.21
0.38 0.60 0.95 1.32 1.45 1.02 1.03 1.53 2.55 2.98 2.12 1.91 2.77 3.41 3.11 2.94 2.71 2.93 2.66 2.11 1.84 1.72 1.88 2.22 2.82 3.28 2.84 2.01 1.71 1.57 1.43 1.53 1.39 1.35 1.09 0.91 0.65 0.49 0.35 0.25 0.29 0.35 0.38
0.34 0.35 0.56 0.83 0.79 0.73 0.77 0.94 1.48 2.35 2.43 2.47 2.68 3.18 3.05 2.43 2.15 2.20 2.78 2.81 2.55 2.09 1.89 1.93 2.04 2.04 2.23 2.70 2.47 2.01 1.90 1.79 1.55 1.30 1.07 0.97 0.92 0.93 0.82 0.46 0.27 0.29 0.35
0.16 0.32 0.31 0.46 0.55 0.66 0.78 0.69 1.00 1.46 2.17 2.43 2.43 2.64 2.88 3.15 2.70 2.19 2.40 2.27 1.89 1.85 1.74 1.58 1.49 1.50 1.53 1.63 1.99 2.01 1.74 1.66 1.72 1.68 1.57 1.30 1.21 1.00 1.13 1.04 0.67 0.58 0.44
0.30 0.37 0.59 0.56 0.66 0.78 0.60 0.61 0.89 1.03 1.50 1.69 2.08 2.20 1.78 2.03 2.12 1.97 1.93 2.04 2.00 1.76 1.68 1.56 1.60 1.51 1.52 1.56 1.64 1.77 1.70 1.53 1.41 1.37 1.42 1.61 1.63 1.55 1.56 1.55 1.16 0.83 0.54
0.55 0.51 0.81 1.02 1.05 0.88 0.85 0.56 0.82 0.91 0.90 0.91 0.97 1.35 1.58 1.94 1.87 1.68 1.58 1.55 1.45 1.56 1.90 1.82 1.79 1.87 1.85 1.83 1.85 1.87 1.88 1.79 1.72 1.74 1.68 1.62 1.64 1.83 1.97 2.04 2.09 1.93 1.21
0.91 0.79 0.86 1.20 1.12 0.89 0.99 0.92 0.88 0.98 0.81 0.84 0.54 0.48 0.57 0.70 0.85 0.90 0.91 1.02 1.29 1.22 1.34 1.47 1.39 1.41 1.44 1.41 1.49 1.50 1.45 1.59 1.67 1.58 1.51 1.51 1.37 1.42 1.59 1.90 2.33 2.97 2.66
1.11 0.97 0.90 0.92 0.86 0.72 0.88 0.94 0.81 0.61 0.57 0.66 0.59 0.25 0.28 0.32 0.39 0.31 0.28 0.30 0.45 0.61 0.72 0.85 0.91 0.98 1.06 1.21 1.31 1.32 1.39 1.52 1.58 1.64 1.72 1.71 1.67 1.66 1.51 1.49 1.72 2.06 2.53
0.84 0.76 0.69 0.63 0.58 0.42 0.60 0.85 0.73 0.61 0.51 0.56 0.72 0.45 0.34 0.32 0.34 0.28 0.13 0.14 0.13 0.16 0.18 0.18 0.27 0.35 0.40 0.54 0.76 0.92 1.10 1.30 1.51 1.84 2.12 2.26 2.34 2.49 2.47 2.58 2.75 2.91 3.13
0.56 0.54 0.56 0.53 0.34 0.47 0.71 1.23 1.11 0.76 0.50 0.51 0.58 0.73 0.57 0.47 0.41 0.39 0.21 0.17 0.19 0.20 0.19 0.18 0.19 0.24 0.27 0.27 0.27 0.33 0.40 0.48 0.59 0.81 1.07 1.18 1.32 1.57 1.67 1.89 2.08 2.44 2.91
0.23 0.31 0.45 0.76 0.26 0.49 0.80 1.23 1.16 0.77 0.53 0.58 0.54 0.71 0.94 0.77 0.66 0.48 0.39 0.27 0.30 0.39 0.58 0.40 0.32 0.28 0.23 0.19 0.22 0.26 0.37 0.47 0.58 0.67 0.74 0.86 0.97 1.02 1.04 1.09 1.18 1.26 1.41
0.24 0.27 0.17 0.17 0.29 0.79 0.95 0.96 1.27 1.09 0.86 0.75 0.70 0.65 0.98 0.95 0.86 0.69 0.66 0.55 0.48 0.47 0.61 0.96 0.54 0.45 0.40 0.34 0.26 0.27 0.27 0.34 0.50 0.52 0.58 0.61 0.76 0.95 1.09 1.41 1.63 1.53 1.45
0.15 0.14 0.14 0.22 0.31 1.05 0.98 1.23 1.26 1.55 1.35 1.03 0.97 0.89 0.68 0.92 0.82 0.66 0.86 0.76 0.58 0.63 0.53 0.56 0.61 0.53 0.46 0.62 0.50 0.38 0.41 0.36 0.58 0.89 0.88 1.03 1.09 1.21 1.17 1.02 0.94 1.07 1.10
0.13 0.10 0.17 0.24 0.33 0.75 0.96 0.98 1.47 1.91 1.70 1.44 1.16 1.04 0.67 0.77 0.92 0.87 0.83 0.72 0.65 0.78 0.55 0.55 0.47 0.42 0.51 0.97 0.96 0.73 0.69 0.72 0.63 0.98 1.10 1.11 1.37 1.05 1.10 1.10 1.06 1.01 1.01
0.14 0.12 0.20 0.59 0.36 0.57 0.90 1.13 1.44 1.56 1.74 1.98 1.59 1.14 0.69 0.70 0.67 0.56 0.58 0.51 0.54 0.67 0.68 0.61 0.69 0.57 0.62 0.93 1.05 0.91 0.56 0.68 0.81 0.62 0.62 0.46 0.46 0.57 0.53 0.67 0.67 0.64 0.57
0.15 0.40 0.59 0.60 0.40 0.76 1.30 1.19 1.51 1.19 1.44 2.01 1.74 1.43 1.09 0.94 0.86 0.70 0.65 0.49 0.52 0.58 0.61 0.61 0.81 0.92 1.10 1.04 1.04 0.91 0.47 0.40 0.51 0.31 0.22 0.16 0.14 0.20 0.24 0.31 0.39 0.42 0.40
0.49 0.49 0.64 0.75 0.59 0.66 0.93 0.97 1.11 1.28 1.62 2.03 2.01 1.71 1.32 1.22 1.31 1.38 1.12 0.89 0.90 0.90 0.95 0.84 0.84 0.90 1.13 0.99 1.08 0.67 0.48 0.32 0.22 0.10 0.04 0.04 0.02 0.07 0.16 0.15 0.20 0.24 0.23
0.51 0.70 0.91 0.92 0.71 0.68 0.87 1.36 1.89 1.73 1.67 1.57 1.61 1.57 1.47 1.23 1.21 1.09 1.14 0.97 0.84 0.83 0.85 0.80 0.74 0.72 0.66 0.63 0.68 0.60 0.34 0.15 0.10 0.03 0.03 0.04 0.03 0.05 0.09 0.10 0.07 0.10 0.03
0.43 0.47 0.66 0.76 0.72 0.82 1.34 1.65 1.77 1.77 1.73 1.72 1.55 1.40 1.21 1.28 1.13 1.06 0.90 0.87 0.69 0.52 0.47 0.41 0.38 0.27 0.19 0.15 0.15 0.10 0.08 0.08 0.08 0.03 0.02 0.02 0.05 0.10 0.13 0.14 0.09 0.13 0.12
0.30 0.20 0.47 0.98 1.20 1.10 1.17 1.10 1.09 1.08 0.91 0.95 0.83 0.87 0.75 0.71 0.73 0.51 0.53 0.47 0.35 0.24 0.14 0.07 0.05 0.03 0.03 0.05 0.07 0.07 0.07 0.06 0.04 0.04 0.03 0.02 0.08 0.13 0.11 0.12 0.11 0.15 0.17
0.22 0.10 0.17 0.22 0.36 0.43 0.41 0.49 0.54 0.53 0.53 0.51 0.47 0.51 0.46 0.33 0.26 0.19 0.16 0.15 0.08 0.02 0.02 0.02 0.02 0.02 0.02 0.03 0.08 0.07 0.07 0.10 0.09 0.04 0.07 0.10 0.11 0.11 0.08 0.08 0.11 0.11 0.09
0.06 0.07 0.09 0.13 0.22 0.26 0.29 0.27 0.16 0.22 0.32 0.47 0.47 0.46 0.29 0.24 0.16 0.10 0.07 0.04 0.04 0.03 0.03 0.03 0.04 0.04 0.06 0.06 0.06 0.09 0.09 0.11 0.10 0.07 0.10 0.14 0.13 0.12 0.10 0.11 0.11 0.09 0.11
0.06 0.09 0.13 0.14 0.13 0.10 0.19 0.24 0.19 0.18 0.23 0.26 0.26 0.21 0.11 0.11 0.08 0.05 0.07 0.07 0.06 0.05 0.02 0.02 0.03 0.05 0.06 0.08 0.18 0.21 0.19 0.21 0.28 0.39 0.25 0.21 0.14 0.11 0.12 0.11 0.12 0.19 0.26
0.05 0.03 0.09 0.17 0.26 0.29 0.31 0.28 0.25 0.21 0.19 0.16 0.13 0.16 0.08 0.06 0.06 0.06 0.10 0.13 0.08 0.06 0.06 0.06 0.05 0.04 0.07 0.11 0.18 0.21 0.24 0.29 0.40 0.46 0.31 0.21 0.15 0.14 0.15 0.18 0.23 0.28 0.36

GFSMW_prec_precacc_258.txt.gz
Total_Precipitation_Accumulation
1.01 1.24 0.89 0.81 0.91 0.85 0.88 0.71 0.61 0.72 0.95 1.11 0.99 0.99 1.26 1.72 1.88 1.43 1.19 1.13 1.06 1.07 1.00 0.83 0.69 0.52 0.34 0.26 0.26 0.34 0.53 0.74 0.71 0.63 0.48 0.32 0.22 0.24 0.29 0.31 0.32 0.31 0.28
0.89 1.29 1.70 0.90 0.88 1.50 1.77 1.37 1.11 1.01 0.94 1.07 1.00 0.90 1.00 1.20 1.63 1.90 1.50 1.43 1.38 1.29 1.05 0.89 0.88 0.75 0.68 0.60 0.60 0.53 0.56 0.60 0.77 0.76 0.61 0.51 0.43 0.36 0.20 0.16 0.19 0.23 0.27
0.60 1.05 1.84 1.39 1.25 1.72 1.87 1.62 1.51 1.54 1.46 1.48 1.88 1.58 1.60 1.48 1.70 2.11 1.91 1.78 1.54 1.46 1.65 1.97 1.65 1.14 1.16 1.26 1.30 1.36 1.34 1.14 0.92 0.81 0.87 0.61 0.42 0.32 0.36 0.25 0.21 0.21 0.21
0.38 0.60 0.95 1.32 1.45 1.02 1.03 1.53 2.55 2.98 2.12 1.91 2.77 3.41 3.11 2.94 2.71 2.93 2.66 2.11 1.84 1.72 1.88 2.22 2.82 3.28 2.84 2.01 1.71 1.57 1.43 1.53 1.39 1.35 1.09 0.91 0.65 0.49 0.35 0.25 0.29 0.35 0.38
0.34 0.35 0.56 0.83 0.79 0.73 0.77 0.94 1.48 2.35 2.43 2.47 2.68 3.18 3.05 2.43 2.15 2.20 2.78 2.81 2.55 2.09 1.89 1.93 2.04 2.04 2.23 2.70 2.47 2.01 1.90 1.79 1.55 1.30 1.07 0.97 0.92 0.93 0.82 0.46 0.27 0.29 0.35
0.16 0.32 0.31 0.46 0.55 0.66 0.78 0.69 1.00 1.46 2.17 2.43 2.43 2.64 2.88 3.15 2.70 2.19 2.40 2.27 1.89 1.85 1.74 1.58 1.49 1.50 1.53 1.63 1.99 2.01 1.74 1.66 1.72 1.68 1.57 1.30 1.21 1.00 1.13 1.04 0.67 0.58 0.44
0.30 0.37 0.59 0.56 0.66 0.78 0.60 0.61 0.89 1.03 1.50 1.69 2.08 2.20 1.78 2.03 2.12 1.97 1.93 2.04 2.00 1.76 1.68 1.56 1.60 1.51 1.52 1.56 1.64 1.77 1.70 1.53 1.41 1.37 1.42 1.61 1.63 1.55 1.56 1.55 1.16 0.83 0.54
0.55 0.51 0.81 1.02 1.05 0.88 0.85 0.56 0.82 0.91 0.90 0.91 0.97 1.35 1.58 1.94 1.87 1.68 1.58 1.55 1.45 1.56 1.90 1.82 1.79 1.87 1.85 1.83 1.85 1.87 1.88 1.79 1.72 1.74 1.68 1.62 1.64 1.83 1.97 2.04 2.09 1.93 1.21
0.91 0.79 0.86 1.20 1.12 0.89 0.99 0.92 0.88 0.98 0.81 0.84 0.54 0.48 0.57 0.70 0.85 0.90 0.91 1.02 1.29 1.22 1.34 1.47 1.39 1.41 1.44 1.41 1.49 1.50 1.45 1.59 1.67 1.58 1.51 1.51 1.37 1.42 1.59 1.90 2.33 2.97 2.66
1.11 0.97 0.90 0.92 0.86 0.72 0.88 0.94 0.81 0.61 0.57 0.66 0.59 0.25 0.28 0.32 0.39 0.31 0.28 0.30 0.45 0.61 0.72 0.85 0.91 0.98 1.06 1.21 1.31 1.32 1.39 1.52 1.58 1.64 1.72 1.71 1.67 1.66 1.51 1.49 1.72 2.06 2.53
0.84 0.76 0.69 0.63 0.58 0.42 0.60 0.85 0.73 0.61 0.51 0.56 0.72 0.45 0.34 0.32 0.34 0.28 0.13 0.14 0.13 0.16 0.18 0.18 0.27 0.35 0.40 0.54 0.76 0.92 1.10 1.30 1.51 1.84 2.12 2.26 2.34 2.49 2.47 2.58 2.75 2.91 3.13
0.56 0.54 0.56 0.53 0.34 0.47 0.71 1.23 1.11 0.76 0.50 0.51 0.58 0.73 0.57 0.47 0.41 0.39 0.21 0.17 0.19 0.20 0.19 0.18 0.20 0.25 0.27 0.28 0.27 0.33 0.40 0.48 0.59 0.81 1.07 1.18 1.32 1.57 1.67 1.89 2.08 2.44 2.91
0.23 0.31 0.45 0.76 0.26 0.49 0.80 1.23 1.16 0.77 0.53 0.58 0.54 0.71 0.94 0.77 0.66 0.48 0.39 0.27 0.30 0.39 0.58 0.41 0.34 0.31 0.27 0.21 0.23 0.27 0.37 0.47 0.58 0.67 0.74 0.86 0.97 1.02 1.04 1.09 1.18 1.26 1.41
0.24 0.27 0.17 0.17 0.29 0.79 0.95 0.96 1.27 1.09 0.86 0.75 0.70 0.65 0.98 0.95 0.86 0.69 0.66 0.55 0.48 0.47 0.64 1.03 0.62 0.55 0.51 0.41 0.29 0.28 0.28 0.35 0.50 0.52 0.58 0.61 0.76 0.95 1.09 1.41 1.63 1.53 1.45
0.15 0.14 0.14 0.22 0.31 1.05 0.98 1.23 1.26 1.55 1.35 1.03 0.97 0.89 0.68 0.92 0.82 0.66 0.86 0.78 0.61 0.67 0.59 0.61 0.64 0.55 0.47 0.64 0.52 0.39 0.41 0.37 0.58 0.89 0.88 1.03 1.09 1.22 1.17 1.02 0.94 1.07 1.10
0.13 0.10 0.17 0.24 0.33 0.75 0.96 0.98 1.47 1.91 1.70 1.44 1.16 1.04 0.67 0.77 0.92 0.87 0.87 0.77 0.71 0.85 0.64 0.64 0.55 0.49 0.55 1.00 0.97 0.74 0.69 0.72 0.63 0.98 1.11 1.11 1.38 1.06 1.10 1.10 1.06 1.01 1.01
0.14 0.12 0.20 0.59 0.36 0.57 0.90 1.13 1.44 1.56 1.74 1.98 1.59 1.14 0.69 0.70 0.67 0.56 0.59 0.53 0.59 0.73 0.73 0.66 0.75 0.63 0.67 0.98 1.08 0.92 0.56 0.68 0.81 0.62 0.63 0.46 0.47 0.57 0.53 0.67 0.67 0.64 0.57
0.15 0.40 0.59 0.60 0.40 0.76 1.30 1.19 1.51 1.19 1.44 2.01 1.75 1.44 1.09 0.94 0.86 0.71 0.67 0.51 0.53 0.62 0.65 0.65 0.83 0.94 1.13 1.07 1.04 0.91 0.47 0.40 0.51 0.31 0.22 0.16 0.14 0.21 0.24 0.31 0.39 0.42 0.40
0.49 0.49 0.64 0.75 0.59 0.66 0.93 0.97 1.11 1.28 1.62 2.03 2.01 1.71 1.32 1.23 1.33 1.42 1.21 0.98 0.94 0.94 0.99 0.87 0.85 0.91 1.14 0.99 1.08 0.67 0.48 0.32 0.22 0.10 0.04 0.04 0.02 0.08 0.16 0.15 0.20 0.24 0.23
0.51 0.70 0.91 0.92 0.71 0.68 0.87 1.36 1.89 1.73 1.67 1.57 1.61 1.57 1.47 1.23 1.22 1.14 1.27 1.18 0.99 0.92 0.91 0.83 0.77 0.73 0.66 0.63 0.68 0.60 0.34 0.15 0.10 0.03 0.03 0.04 0.04 0.07 0.09 0.10 0.07 0.10 0.03
0.43 0.47 0.66 0.76 0.72 0.82 1.34 1.65 1.77 1.77 1.73 1.72 1.55 1.40 1.21 1.29 1.13 1.06 0.91 0.91 0.76 0.58 0.53 0.47 0.40 0.27 0.19 0.15 0.15 0.10 0.08 0.08 0.08 0.03 0.02 0.02 0.06 0.11 0.13 0.14 0.09 0.13 0.12
0.30 0.20 0.47 0.98 1.20 1.10 1.17 1.10 1.09 1.08 0.91 0.95 0.83 0.87 0.75 0.71 0.73 0.52 0.55 0.50 0.39 0.28 0.18 0.11 0.07 0.04 0.03 0.05 0.07 0.07 0.07 0.06 0.04 0.04 0.03 0.02 0.09 0.13 0.11 0.12 0.11 0.15 0.17
0.22 0.10 0.17 0.22 0.36 0.43 0.41 0.49 0.54 0.53 0.53 0.51 0.47 0.51 0.46 0.34 0.29 0.22 0.19 0.19 0.14 0.07 0.04 0.04 0.02 0.02 0.02 0.03 0.08 0.07 0.07 0.10 0.09 0.04 0.07 0.10 0.11 0.11 0.08 0.08 0.11 0.11 0.09
0.06 0.07 0.09 0.13 0.22 0.26 0.29 0.27 0.16 0.22 0.33 0.47 0.47 0.46 0.30 0.27 0.18 0.13 0.10 0.08 0.07 0.05 0.07 0.07 0.05 0.04 0.06 0.06 0.06 0.09 0.09 0.11 0.10 0.07 0.10 0.14 0.13 0.12 0.10 0.11 0.11 0.09 0.11
0.06 0.09 0.13 0.14 0.13 0.10 0.19 0.24 0.19 0.18 0.23 0.26 0.26 0.22 0.11 0.13 0.09 0.07 0.09 0.10 0.08 0.07 0.04 0.02 0.03 0.05 0.06 0.08 0.18 0.21 0.19 0.21 0.28 0.39 0.25 0.21 0.14 0.11 0.12 0.11 0.12 0.19 0.26
0.05 0.03 0.09 0.17 0.26 0.29 0.31 0.28 0.25 0.21 0.19 0.16 0.13 0.16 0.09 0.07 0.07 0.08 0.12 0.17 0.12 0.09 0.07 0.06 0.05 0.04 0.07 0.11 0.18 0.21 0.24 0.29 0.40 0.46 0.31 0.21 0.15 0.14 0.15 0.19 0.23 0.29 0.36

GFSMW_prec_precacc_264.txt.gz
Total_Precipitation_Accumulation
1.01 1.24 0.89 0.81 0.91 0.85 0.88 0.71 0.61 0.72 0.95 1.11 0.99 0.99 1.26 1.72 1.88 1.43 1.19 1.13 1.06 1.07 1.00 0.83 0.69 0.52 0.34 0.26 0.26 0.34 0.53 0.74 0.71 0.63 0.48 0.32 0.22 0.24 0.29 0.31 0.32 0.31 0.28
0.89 1.29 1.70 0.90 0.88 1.50 1.77 1.37 1.11 1.01 0.94 1.07 1.00 0.90 1.00 1.20 1.63 1.90 1.50 1.43 1.38 1.29 1.05 0.89 0.88 0.75 0.68 0.60 0.60 0.53 0.56 0.60 0.77 0.76 0.61 0.51 0.43 0.36 0.20 0.16 0.19 0.23 0.27
0.60 1.05 1.84 1.39 1.25 1.72 1.87 1.62 1.51 1.54 1.46 1.48 1.88 1.58 1.60 1.48 1.70 2.11 1.91 1.78 1.54 1.46 1.65 1.97 1.65 1.14 1.16 1.26 1.30 1.36 1.34 1.14 0.92 0.81 0.87 0.61 0.42 0.32 0.36 0.25 0.21 0.21 0.21
0.38 0.60 0.95 1.32 1.45 1.02 1.03 1.53 2.55 2.98 2.12 1.91 2.77 3.41 3.11 2.94 2.71 2.93 2.66 2.11 1.84 1.72 1.88 2.22 2.82 3.28 2.84 2.01 1.71 1.57 1.43 1.53 1.39 1.35 1.09 0.91 0.65 0.49 0.35 0.25 0.29 0.35 0.38
0.34 0.35 0.56 0.83 0.79 0.73 0.77 0.94 1.48 2.35 2.43 2.47 2.68 3.18 3.05 2.43 2.15 2.20 2.78 2.81 2.55 2.09 1.89 1.93 2.04 2.04 2.23 2.70 2.47 2.01 1.90 1.79 1.55 1.30 1.07 0.97 0.92 0.93 0.82 0.46 0.27 0.29 0.35
0.16 0.32 0.31 0.46 0.55 0.66 0.78 0.69 1.00 1.46 2.17 2.43 2.43 2.64 2.88 3.15 2.70 2.19 2.40 2.27 1.89 1.85 1.74 1.58 1.49 1.50 1.53 1.63 1.99 2.01 1.74 1.66 1.72 1.68 1.57 1.30 1.21 1.00 1.13 1.04 0.67 0.58 0.44
0.30 0.37 0.59 0.56 0.66 0.78 0.60 0.61 0.89 1.03 1.50 1.69 2.08 2.20 1.78 2.03 2.12 1.97 1.93 2.04 2.00 1.76 1.68 1.56 1.60 1.51 1.52 1.56 1.64 1.77 1.70 1.53 1.41 1.37 1.42 1.61 1.63 1.55 1.56 1.55 1.16 0.83 0.54
0.55 0.51 0.81 1.02 1.05 0.88 0.85 0.56 0.82 0.91 0.90 0.91 0.97 1.35 1.58 1.94 1.87 1.68 1.58 1.55 1.45 1.56 1.90 1.82 1.79 1.87 1.85 1.83 1.85 1.87 1.88 1.79 1.72 1.74 1.68 1.62 1.64 1.83 1.97 2.04 2.09 1.93 1.21
0.91 0.79 0.86 1.20 1.12 0.89 0.99 0.92 0.88 0.98 0.81 0.84 0.54 0.48 0.57 0.70 0.85 0.90 0.91 1.02 1.29 1.22 1.34 1.47 1.39 1.41 1.44 1.41 1.49 1.50 1.45 1.59 1.67 1.58 1.51 1.51 1.37 1.42 1.59 1.90 2.33 2.97 2.66
1.11 0.97 0.90 0.92 0.86 0.72 0.88 0.94 0.81 0.61 0.57 0.66 0.59 0.25 0.28 0.32 0.39 0.31 0.28 0.30 0.45 0.61 0.72 0.85 0.91 0.98 1.06 1.21 1.31 1.32 1.39 1.52 1.58 1.64 1.72 1.71 1.67 1.66 1.51 1.49 1.72 2.06 2.53
0.84 0.76 0.69 0.63 0.58 0.42 0.60 0.85 0.73 0.61 0.51 0.56 0.72 0.45 0.34 0.32 0.34 0.28 0.13 0.14 0.13 0.16 0.18 0.18 0.27 0.35 0.40 0.54 0.76 0.92 1.10 1.31 1.53 1.85 2.12 2.26 2.34 2.49 2.47 2.58 2.75 2.91 3.13
0.56 0.54 0.56 0.53 0.34 0.47 0.71 1.23 1.11 0.76 0.50 0.51 0.58 0.73 0.57 0.47 0.41 0.39 0.21 0.17 0.19 0.20 0.19 0.18 0.20 0.25 0.27 0.28 0.27 0.33 0.41 0.51 0.63 0.86 1.09 1.19 1.32 1.57 1.67 1.89 2.08 2.44 2.91
0.23 0.31 0.45 0.76 0.26 0.49 0.80 1.23 1.16 0.77 0.53 0.58 0.54 0.71 0.94 0.77 0.66 0.48 0.39 0.27 0.30 0.39 0.58 0.41 0.34 0.31 0.28 0.24 0.27 0.32 0.42 0.54 0.65 0.73 0.79 0.89 0.98 1.02 1.04 1.09 1.18 1.26 1.41
0.24 0.27 0.17 0.17 0.29 0.79 0.95 0.96 1.27 1.09 0.86 0.75 0.70 0.65 0.98 0.95 0.86 0.69 0.66 0.55 0.48 0.47 0.64 1.03 0.63 0.57 0.55 0.47 0.36 0.36 0.37 0.44 0.59 0.60 0.65 0.65 0.78 0.95 1.09 1.41 1.63 1.53 1.45
0.15 0.14 0.14 0.22 0.31 1.05 0.98 1.23 1.26 1.55 1.35 1.03 0.97 0.89 0.68 0.92 0.82 0.66 0.86 0.78 0.61 0.67 0.59 0.62 0.66 0.57 0.49 0.68 0.59 0.48 0.52 0.49 0.69 0.99 0.97 1.07 1.10 1.22 1.17 1.02 0.94 1.07 1.10
0.13 0.10 0.17 0.24 0.33 0.75 0.96 0.98 1.47 1.91 1.70 1.44 1.16 1.04 0.67 0.77 0.92 0.87 0.87 0.77 0.71 0.85 0.65 0.66 0.58 0.53 0.60 1.11 1.08 0.86 0.82 0.84 0.74 1.11 1.23 1.19 1.42 1.09 1.12 1.11 1.06 1.01 1.01
0.14 0.13 0.21 0.60 0.36 0.58 0.91 1.14 1.44 1.56 1.74 1.98 1.59 1.14 0.69 0.70 0.67 0.56 0.59 0.53 0.59 0.74 0.75 0.69 0.78 0.69 0.78 1.16 1.25 1.09 0.71 0.84 0.95 0.75 0.74 0.54 0.52 0.59 0.53 0.67 0.67 0.64 0.57
0.15 0.40 0.59 0.60 0.40 0.76 1.30 1.19 1.51 1.19 1.44 2.01 1.75 1.44 1.09 0.94 0.86 0.71 0.68 0.52 0.54 0.63 0.67 0.68 0.88 0.99 1.23 1.20 1.17 1.03 0.58 0.50 0.61 0.41 0.29 0.20 0.17 0.22 0.24 0.31 0.39 0.42 0.40
0.49 0.49 0.64 0.75 0.59 0.66 0.93 0.97 1.11 1.28 1.62 2.03 2.01 1.71 1.32 1.23 1.34 1.43 1.23 1.03 1.02 1.02 1.06 0.94 0.90 0.95 1.22 1.08 1.13 0.71 0.50 0.35 0.25 0.12 0.06 0.05 0.03 0.10 0.16 0.15 0.20 0.24 0.23
0.51 0.70 0.91 0.92 0.71 0.68 0.87 1.36 1.89 1.73 1.67 1.57 1.61 1.57 1.47 1.23 1.22 1.14 1.27 1.21 1.08 1.05 1.03 0.94 0.84 0.80 0.71 0.69 0.71 0.61 0.34 0.16 0.11 0.03 0.03 0.05 0.05 0.11 0.10 0.10 0.07 0.10 0.03
0.43 0.47 0.66 0.76 0.72 0.82 1.34 1.65 1.77 1.77 1.73 1.72 1.55 1.40 1.21 1.29 1.13 1.06 0.91 0.92 0.78 0.62 0.58 0.52 0.45 0.31 0.23 0.17 0.16 0.11 0.08 0.08 0.08 0.03 0.02 0.02 0.08 0.16 0.15 0.15 0.09 0.13 0.12
0.30 0.20 0.47 0.98 1.20 1.10 1.17 1.10 1.09 1.08 0.91 0.95 0.83 0.87 0.75 0.71 0.73 0.52 0.55 0.51 0.40 0.31 0.22 0.16 0.12 0.08 0.08 0.08 0.08 0.07 0.07 0.06 0.04 0.04 0.03 0.03 0.12 0.18 0.15 0.12 0.11 0.15 0.17
0.22 0.10 0.17 0.22 0.36 0.43 0.41 0.49 0.54 0.53 0.53 0.51 0.47 0.51 0.46 0.34 0.29 0.23 0.21 0.22 0.16 0.12 0.11 0.11 0.10 0.08 0.07 0.06 0.09 0.07 0.07 0.10 0.09 0.04 0.07 0.10 0.14 0.15 0.11 0.08 0.11 0.11 0.09
0.06 0.07 0.09 0.13 0.22 0.26 0.29 0.27 0.16 0.22 0.33 0.47 0.47 0.47 0.31 0.28 0.19 0.14 0.13 0.12 0.11 0.11 0.16 0.16 0.14 0.13 0.11 0.09 0.07 0.09 0.10 0.12 0.10 0.07 0.10 0.14 0.14 0.13 0.10 0.11 0.11 0.09 0.11
0.08 0.11 0.14 0.14 0.13 0.10 0.19 0.24 0.19 0.18 0.23 0.26 0.26 0.22 0.12 0.14 0.12 0.10 0.12 0.13 0.11 0.12 0.09 0.06 0.06 0.08 0.09 0.08 0.18 0.21 0.20 0.21 0.28 0.39 0.25 0.21 0.14 0.11 0.12 0.11 0.12 0.19 0.26
0.08 0.06 0.11 0.17 0.26 0.29 0.31 0.28 0.25 0.21 0.19 0.16 0.13 0.16 0.09 0.08 0.08 0.09 0.13 0.21 0.15 0.11 0.09 0.07 0.08 0.05 0.07 0.12 0.18 0.21 0.25 0.30 0.40 0.46 0.31 0.21 0.15 0.14 0.15 0.19 0.23 0.29 0.36

GFSMW_prec_precacc_267.txt.gz
Total_Precipitation_Accumulation
1.01 1.24 0.89 0.81 0.91 0.85 0.88 0.71 0.61 0.72 0.95 1.11 0.99 0.99 1.26 1.72 1.88 1.43 1.19 1.13 1.06 1.07 1.00 0.83 0.69 0.52 0.34 0.26 0.26 0.34 0.53 0.74 0.71 0.63 0.48 0.32 0.22 0.24 0.29 0.31 0.32 0.31 0.28
0.89 1.29 1.70 0.90 0.88 1.50 1.77 1.37 1.11 1.01 0.94 1.07 1.00 0.90 1.00 1.20 1.63 1.90 1.50 1.43 1.38 1.29 1.05 0.89 0.88 0.75 0.68 0.60 0.60 0.53 0.56 0.60 0.77 0.76 0.61 0.51 0.43 0.36 0.20 0.16 0.19 0.23 0.27
0.60 1.05 1.84 1.39 1.25 1.72 1.87 1.62 1.51 1.54 1.46 1.48 1.88 1.58 1.60 1.48 1.70 2.11 1.91 1.78 1.54 1.46 1.65 1.97 1.65 1.14 1.16 1.26 1.30 1.36 1.34 1.14 0.92 0.81 0.87 0.61 0.42 0.32 0.36 0.25 0.21 0.21 0.21
0.38 0.60 0.95 1.32 1.45 1.02 1.03 1.53 2.55 2.98 2.12 1.91 2.77 3.41 3.11 2.94 2.71 2.93 2.66 2.11 1.84 1.72 1.88 2.22 2.82 3.28 2.84 2.01 1.71 1.57 1.43 1.53 1.39 1.35 1.09 0.91 0.65 0.49 0.35 0.25 0.29 0.35 0.38
0.34 0.35 0.56 0.83 0.79 0.73 0.77 0.94 1.48 2.35 2.43 2.47 2.68 3.18 3.05 2.43 2.15 2.20 2.78 2.81 2.55 2.09 1.89 1.93 2.04 2.04 2.23 2.70 2.47 2.01 1.90 1.79 1.55 1.30 1.07 0.97 0.92 0.93 0.82 0.46 0.27 0.29 0.35
0.16 0.32 0.31 0.46 0.55 0.66 0.78 0.69 1.00 1.46 2.17 2.43 2.43 2.64 2.88 3.15 2.70 2.19 2.40 2.27 1.89 1.85 1.74 1.58 1.49 1.50 1.53 1.63 1.99 2.01 1.74 1.66 1.72 1.68 1.57 1.30 1.21 1.00 1.13 1.04 0.67 0.58 0.44
0.30 0.37 0.59 0.56 0.66 0.78 0.60 0.61 0.89 1.03 1.50 1.69 2.08 2.20 1.78 2.03 2.12 1.97 1.93 2.04 2.00 1.76 1.68 1.56 1.60 1.51 1.52 1.56 1.64 1.77 1.70 1.53 1.41 1.37 1.42 1.61 1.63 1.55 1.56 1.55 1.16 0.83 0.54
0.55 0.51 0.81 1.02 1.05 0.88 0.85 0.56 0.82 0.91 0.90 0.91 0.97 1.35 1.58 1.94 1.87 1.68 1.58 1.55 1.45 1.56 1.90 1.82 1.79 1.87 1.85 1.83 1.85 1.87 1.88 1.79 1.72 1.74 1.68 1.62 1.64 1.83 1.97 2.04 2.09 1.93 1.21
0.91 0.79 0.86 1.20 1.12 0.89 0.99 0.92 0.88 0.98 0.81 0.84 0.54 0.48 0.57 0.70 0.85 0.90 0.91 1.02 1.29 1.22 1.34 1.47 1.39 1.41 1.44 1.41 1.49 1.50 1.45 1.59 1.67 1.58 1.51 1.51 1.37 1.42 1.59 1.90 2.33 2.97 2.66
1.11 0.97 0.90 0.92 0.86 0.72 0.88 0.94 0.81 0.61 0.57 0.66 0.59 0.25 0.28 0.32 0.39 0.31 0.28 0.30 0.45 0.61 0.72 0.85 0.91 0.98 1.06 1.21 1.31 1.32 1.39 1.52 1.58 1.64 1.72 1.71 1.67 1.66 1.51 1.49 1.72 2.06 2.53
0.84 0.76 0.69 0.63 0.58 0.42 0.60 0.85 0.73 0.61 0.51 0.56 0.72 0.45 0.34 0.32 0.34 0.28 0.13 0.14 0.13 0.16 0.18 0.18 0.27 0.35 0.40 0.54 0.76 0.92 1.10 1.31 1.53 1.85 2.12 2.26 2.34 2.49 2.47 2.58 2.75 2.91 3.13
0.56 0.54 0.56 0.53 0.34 0.47 0.71 1.23 1.11 0.76 0.50 0.51 0.58 0.73 0.57 0.47 0.41 0.39 0.21 0.17 0.19 0.20 0.19 0.18 0.20 0.25 0.27 0.28 0.27 0.33 0.41 0.51 0.63 0.86 1.11 1.21 1.34 1.58 1.67 1.89 2.08 2.44 2.91
0.23 0.31 0.45 0.76 0.26 0.49 0.80 1.23 1.16 0.77 0.53 0.58 0.54 0.71 0.94 0.77 0.66 0.48 0.39 0.27 0.30 0.39 0.58 0.41 0.34 0.31 0.28 0.24 0.27 0.32 0.42 0.54 0.65 0.75 0.81 0.93 1.02 1.04 1.04 1.09 1.18 1.26 1.41
0.24 0.27 0.17 0.17 0.29 0.79 0.95 0.96 1.27 1.09 0.86 0.75 0.70 0.65 0.98 0.95 0.86 0.69 0.66 0.55 0.48 0.47 0.64 1.03 0.63 0.57 0.55 0.47 0.36 0.36 0.37 0.44 0.60 0.62 0.68 0.71 0.86 1.00 1.13 1.44 1.64 1.54 1.46
0.15 0.14 0.14 0.22 0.31 1.05 0.98 1.23 1.26 1.55 1.35 1.03 0.97 0.89 0.68 0.92 0.82 0.66 0.86 0.78 0.61 0.67 0.59 0.62 0.66 0.57 0.50 0.68 0.59 0.48 0.53 0.50 0.71 1.02 1.01 1.13 1.18 1.28 1.22 1.06 0.97 1.10 1.11
0.13 0.10 0.17 0.24 0.33 0.75 0.96 0.98 1.47 1.91 1.70 1.44 1.16 1.04 0.67 0.77 0.92 0.87 0.87 0.77 0.71 0.85 0.65 0.66 0.58 0.53 0.61 1.13 1.08 0.87 0.82 0.85 0.78 1.16 1.30 1.29 1.53 1.17 1.20 1.18 1.11 1.04 1.01
0.14 0.13 0.21 0.60 0.36 0.58 0.91 1.14 1.44 1.56 1.74 1.99 1.60 1.14 0.69 0.70 0.67 0.56 0.59 0.53 0.59 0.74 0.75 0.69 0.78 0.69 0.78 1.18 1.26 1.10 0.72 0.87 0.99 0.82 0.82 0.63 0.65 0.71 0.60 0.72 0.69 0.64 0.57
0.15 0.40 0.59 0.60 0.40 0.76 1.31 1.19 1.52 1.20 1.44 2.01 1.75 1.44 1.09 0.94 0.86 0.71 0.68 0.52 0.54 0.63 0.67 0.69 0.88 0.99 1.24 1.21 1.17 1.04 0.59 0.53 0.66 0.47 0.37 0.30 0.27 0.32 0.31 0.34 0.39 0.42 0.40
0.49 0.49 0.64 0.75 0.59 0.66 0.93 0.97 1.12 1.28 1.62 2.03 2.01 1.71 1.32 1.23 1.34 1.43 1.23 1.03 1.02 1.02 1.06 0.94 0.91 0.96 1.22 1.09 1.14 0.72 0.51 0.37 0.29 0.19 0.14 0.15 0.12 0.20 0.23 0.18 0.21 0.24 0.23
0.51 0.70 0.91 0.92 0.71 0.68 0.87 1.36 1.89 1.73 1.67 1.57 1.61 1.57 1.47 1.23 1.22 1.14 1.27 1.21 1.08 1.05 1.03 0.94 0.85 0.82 0.72 0.71 0.73 0.62 0.35 0.16 0.12 0.05 0.06 0.11 0.13 0.19 0.15 0.12 0.07 0.10 0.03
0.43 0.47 0.66 0.76 0.72 0.82 1.34 1.65 1.77 1.77 1.73 1.72 1.55 1.40 1.21 1.29 1.13 1.06 0.91 0.92 0.78 0.62 0.59 0.54 0.47 0.32 0.24 0.20 0.19 0.13 0.08 0.08 0.08 0.03 0.02 0.04 0.14 0.24 0.20 0.16 0.09 0.13 0.12
0.30 0.20 0.47 0.98 1.20 1.10 1.17 1.10 1.09 1.08 0.91 0.95 0.83 0.87 0.75 0.71 0.73 0.52 0.55 0.51 0.40 0.31 0.23 0.18 0.13 0.09 0.09 0.11 0.11 0.09 0.07 0.06 0.04 0.04 0.03 0.05 0.16 0.24 0.18 0.13 0.11 0.15 0.17
0.22 0.10 0.17 0.22 0.36 0.43 0.41 0.49 0.54 0.53 0.53 0.51 0.47 0.51 0.46 0.34 0.29 0.23 0.21 0.22 0.17 0.12 0.11 0.12 0.12 0.10 0.09 0.09 0.12 0.09 0.07 0.10 0.09 0.04 0.08 0.13 0.17 0.21 0.13 0.08 0.11 0.11 0.09
0.06 0.08 0.11 0.16 0.24 0.27 0.30 0.27 0.16 0.22 0.33 0.47 0.47 0.47 0.31 0.28 0.19 0.14 0.13 0.13 0.14 0.13 0.16 0.17 0.16 0.15 0.13 0.11 0.08 0.09 0.10 0.13 0.12 0.07 0.10 0.15 0.18 0.17 0.10 0.11 0.11 0.09 0.11
0.08 0.12 0.19 0.22 0.22 0.19 0.24 0.25 0.19 0.18 0.23 0.26 0.26 0.22 0.12 0.14 0.12 0.11 0.14 0.14 0.12 0.13 0.11 0.08 0.07 0.09 0.10 0.09 0.20 0.21 0.20 0.25 0.29 0.39 0.25 0.21 0.16 0.13 0.13 0.11 0.12 0.19 0.26
0.08 0.06 0.13 0.23 0.34 0.36 0.33 0.28 0.25 0.21 0.19 0.16 0.13 0.16 0.09 0.08 0.08 0.09 0.14 0.22 0.15 0.12 0.10 0.09 0.09 0.06 0.07 0.13 0.19 0.22 0.30 0.35 0.42 0.46 0.31 0.21 0.15 0.14 0.15 0.19 0.23 0.29 0.36